Weather in Vad

Russia / Nizhny Novgorod Oblast'     55°31′53″N   44°12′33″E
temp.,
°C
wind,
m/s
gust,
m/s
humid.,
%
clouds,
%
prec.,
mm/h
press.,
hPa
HPBL,
m
17 may, tue
tue1700:00+6wsw379616 0.1 1002288
03:00+4wsw4109712 0.1 1002313
06:00+6wsw599362 0.0 1001454
09:00+8wsw568393 0.1 1001736
12:00+7wsw3686100 0.1 1001577
15:00+9wsw447399 0.2 1001999
18:00+9w227242 0.1 1001679
21:00+5nw228551 0.1 100219
18 may, wed
wed1800:00+4wnw229047 0.0 100211
03:00+4wnw239191 0.0 100345
06:00+6w3796100 0.1 1003334
09:00+7n5993100 0.5 1005508
12:00+7n5888100 0.0 1007685
15:00+9nnw7877100 0.1 1008903
18:00+9nnw36705 0.0 1009893
21:00+6w3479100 0.0 101069
19 may, thu
thu1900:00+6nw4784100 0.0 1011780
03:00+5nw588976 0.3 1011668
06:00+4wnw4890100 0.1 1012367
09:00+8w4667100 0.1 10111282
12:00+4wnw4896100 3.9 1012668
15:00+5nw589399 4.0 1012644
18:00+8nnw69735 0.2 10121057
21:00+3nw36872 0.2 101493
20 may, fri
fri2000:00+1wnw399211 0.0 1014167
03:00+1wnw4109379 0.0 1014237
06:00+3nw6108878 0.0 1015706
09:00+5nnw71067100 0.0 10161324
12:00+8nnw676099 0.1 10161629
15:00+10nnw464889 0.1 10162137
18:00+10nnw36581 0.0 1015403
21:00+4wnw22682 0.0 101610
21 may, sat
sat2100:00+2w227477 0.0 101510
03:00+1wsw227555 0.0 101411
06:00+5wsw12685 0.0 101399
09:00+10ene01535 0.0 1011744
12:00+12ene214498 0.0 10102086
15:00+12nne224683 0.0 10091815
18:00+11nne235815 0.1 1008431
21:00+5ne348596 0.1 100958